Location: Rounton
(54.4000°N, 1.3500°W)
Time: 22:49:50
(UTC+00:00)

Vanguard 3 - Pass Details

Date: 01 December 2021
Orbit: 508 x 3260 km, 33.3° (Epoch: 17 January)

Event Time Altitude Azimuth Distance (km) Brightness Sun altitude
Rises 03:36:41 0° 209° (SSW) 7,173 - -37.4°
Exits shadow 03:41:33 - 200° (SSW) 6,419 11.4 -36.7°
Reaches altitude 10° 03:43:06 10° 197° (SSW) 6,191 11.3 -36.5°
Maximum altitude 03:56:14 23° 155° (SSE) 4,803 11.1 -34.7°
Drops below altitude 10° 04:07:12 10° 111° (ESE) 5,129 11.9 -33.1°
Sets 04:11:45 0° 98° (E) 5,731 12.5 -32.4°
